Time,TemperatureF,DewpointF,PressureIn,WindDirection,WindDirectionDegrees,WindSpeedMPH,WindSpeedGustMPH,Humidity,HourlyPrecipIn,Conditions,Clouds,dailyrainin,SoftwareType,DateUTC
2013-01-19 00:03:00,58.0,58.0,30.23,NNW,347,5.0,10.0,100,99.99,,,-99.99,,2013-01-19 05:03:00,
2013-01-19 00:12:00,58.0,58.0,30.23,NNW,347,5.0,10.0,100,99.99,,,-99.99,,2013-01-19 05:12:00,
2013-01-19 00:23:00,58.0,58.0,30.23,North,4,5.0,10.0,100,99.99,,,-99.99,,2013-01-19 05:23:00,
2013-01-19 00:33:00,58.0,58.0,30.23,North,352,6.0,11.0,100,99.99,,,-99.99,,2013-01-19 05:33:00,
2013-01-19 00:43:00,58.0,58.0,30.23,North,352,6.0,11.0,100,99.99,,,-99.99,,2013-01-19 05:43:00,
2013-01-19 00:53:00,58.0,58.0,30.23,North,349,6.0,9.0,100,99.99,,,-99.99,,2013-01-19 05:53:00,
2013-01-19 01:03:00,58.0,58.0,30.22,North,349,5.0,9.0,100,99.99,,,-99.99,,2013-01-19 06:03:00,
2013-01-19 01:12:00,58.0,58.0,30.22,North,349,5.0,9.0,100,99.99,,,-99.99,,2013-01-19 06:12:00,
2013-01-19 01:22:00,58.0,58.0,30.22,North,11,5.0,8.0,100,99.99,,,-99.99,,2013-01-19 06:22:00,
2013-01-19 01:32:00,58.0,58.0,30.23,North,7,4.0,9.0,100,99.99,,,-99.99,,2013-01-19 06:32:00,
2013-01-19 01:43:00,58.0,58.0,30.23,North,7,4.0,9.0,100,99.99,,,-99.99,,2013-01-19 06:43:00,
2013-01-19 01:53:00,58.0,58.0,30.22,North,3,5.0,9.0,100,99.99,,,-99.99,,2013-01-19 06:53:00,
2013-01-19 02:02:00,58.0,58.0,30.22,North,352,5.0,8.0,100,99.99,,,-99.99,,2013-01-19 07:02:00,
2013-01-19 02:12:00,58.0,58.0,30.22,North,352,5.0,8.0,100,99.99,,,-99.99,,2013-01-19 07:12:00,
2013-01-19 02:22:00,58.0,58.0,30.21,NNE,17,2.0,7.0,100,99.99,,,-99.99,,2013-01-19 07:22:00,
2013-01-19 02:33:00,58.0,58.0,30.21,North,4,4.0,7.0,100,99.99,,,-99.99,,2013-01-19 07:33:00,
2013-01-19 02:43:00,58.0,58.0,30.21,North,4,4.0,7.0,100,99.99,,,-99.99,,2013-01-19 07:43:00,
2013-01-19 02:53:00,58.0,58.0,30.22,North,353,3.0,7.0,100,99.99,,,-99.99,,2013-01-19 07:53:00,
2013-01-19 03:02:00,57.0,57.0,30.21,North,359,2.0,5.0,100,99.99,,,-99.99,,2013-01-19 08:02:00,
2013-01-19 03:12:00,57.0,57.0,30.21,North,359,2.0,5.0,100,99.99,,,-99.99,,2013-01-19 08:12:00,
2013-01-19 03:22:00,57.0,57.0,30.20,North,356,1.0,4.0,100,99.99,,,-99.99,,2013-01-19 08:22:00,
2013-01-19 03:32:00,57.0,57.0,30.20,North,1,4.0,8.0,100,99.99,,,-99.99,,2013-01-19 08:32:00,
2013-01-19 03:43:00,57.0,57.0,30.20,North,1,4.0,8.0,100,99.99,,,-99.99,,2013-01-19 08:43:00,
2013-01-19 03:52:00,57.0,57.0,30.22,North,359,4.0,8.0,100,99.99,,,-99.99,,2013-01-19 08:52:00,
2013-01-19 04:02:00,57.0,57.0,30.20,NE,49,4.0,8.0,100,99.99,,,-99.99,,2013-01-19 09:02:00,
2013-01-19 04:12:00,57.0,57.0,30.20,NE,49,4.0,8.0,100,99.99,,,-99.99,,2013-01-19 09:12:00,
2013-01-19 04:23:00,57.0,57.0,30.20,North,6,3.0,6.0,100,99.99,,,-99.99,,2013-01-19 09:23:00,
2013-01-19 04:33:00,57.0,57.0,30.20,NW,323,3.0,5.0,100,99.99,,,-99.99,,2013-01-19 09:33:00,
2013-01-19 04:42:00,57.0,57.0,30.20,NW,323,3.0,5.0,100,99.99,,,-99.99,,2013-01-19 09:42:00,
2013-01-19 04:52:00,57.0,57.0,30.21,North,356,5.0,10.0,100,99.99,,,-99.99,,2013-01-19 09:52:00,
2013-01-19 05:02:00,57.0,57.0,30.21,North,4,5.0,9.0,100,99.99,,,-99.99,,2013-01-19 10:02:00,
2013-01-19 05:12:00,57.0,57.0,30.21,North,4,5.0,9.0,100,99.99,,,-99.99,,2013-01-19 10:12:00,
2013-01-19 05:22:00,57.0,57.0,30.20,NNW,346,5.0,7.0,100,99.99,,,-99.99,,2013-01-19 10:22:00,
2013-01-19 05:32:00,58.0,58.0,30.20,NW,326,4.0,8.0,100,99.99,,,-99.99,,2013-01-19 10:32:00,
2013-01-19 05:43:00,58.0,58.0,30.20,NW,326,4.0,8.0,100,99.99,,,-99.99,,2013-01-19 10:43:00,
2013-01-19 05:52:00,57.0,57.0,30.22,North,357,3.0,5.0,100,99.99,,,-99.99,,2013-01-19 10:52:00,
2013-01-19 06:03:00,57.0,57.0,30.22,NW,321,2.0,4.0,100,99.99,,,-99.99,,2013-01-19 11:03:00,
2013-01-19 06:12:00,57.0,57.0,30.22,NW,321,2.0,4.0,100,99.99,,,-99.99,,2013-01-19 11:12:00,
2013-01-19 06:32:00,57.0,57.0,30.23,NNW,332,4.0,7.0,100,99.99,,,-99.99,,2013-01-19 11:32:00,
2013-01-19 08:23:00,58.0,58.0,30.23,North,1,6.0,10.0,100,99.99,,,-99.99,,2013-01-19 13:23:00,
2013-01-19 08:34:00,58.0,58.0,30.23,North,1,6.0,10.0,100,99.99,,,-99.99,,2013-01-19 13:34:00,
2013-01-19 08:43:00,58.0,58.0,30.23,North,1,6.0,10.0,100,99.99,,,-99.99,,2013-01-19 13:43:00,
2013-01-19 08:53:00,58.0,58.0,30.23,NNE,13,7.0,10.0,100,99.99,,,-99.99,,2013-01-19 13:53:00,
2013-01-19 09:03:00,60.0,60.0,30.24,North,4,7.0,11.0,100,99.99,,,-99.99,,2013-01-19 14:03:00,
2013-01-19 09:12:00,60.0,60.0,30.24,North,4,7.0,11.0,100,99.99,,,-99.99,,2013-01-19 14:12:00,
2013-01-19 09:23:00,60.0,60.0,30.24,North,1,7.0,13.0,99,99.99,,,-99.99,,2013-01-19 14:23:00,
2013-01-19 09:34:00,62.0,61.0,30.24,North,11,6.0,10.0,97,99.99,,,-99.99,,2013-01-19 14:34:00,
2013-01-19 09:43:00,62.0,61.0,30.24,North,11,6.0,10.0,97,99.99,,,-99.99,,2013-01-19 14:43:00,
2013-01-19 09:53:00,63.0,62.0,30.26,NNE,23,6.0,13.0,95,99.99,,,-99.99,,2013-01-19 14:53:00,
2013-01-19 10:03:00,63.0,62.0,30.27,North,10,7.0,12.0,95,99.99,,,-99.99,,2013-01-19 15:03:00,
2013-01-19 10:13:00,63.0,62.0,30.27,North,10,7.0,12.0,95,99.99,,,-99.99,,2013-01-19 15:13:00,
2013-01-19 10:23:00,64.0,63.0,30.26,North,7,6.0,10.0,95,99.99,,,-99.99,,2013-01-19 15:23:00,
2013-01-19 10:33:00,65.0,62.0,30.25,NNE,13,8.0,13.0,90,99.99,,,-99.99,,2013-01-19 15:33:00,
2013-01-19 10:43:00,65.0,62.0,30.25,NNE,13,8.0,13.0,90,99.99,,,-99.99,,2013-01-19 15:43:00,
2013-01-19 10:53:00,66.0,63.0,30.25,NE,55,7.0,13.0,91,99.99,,,-99.99,,2013-01-19 15:53:00,
2013-01-19 11:03:00,67.0,63.0,30.26,NNE,32,8.0,13.0,87,99.99,,,-99.99,,2013-01-19 16:03:00,
2013-01-19 11:13:00,67.0,63.0,30.26,NNE,32,8.0,13.0,87,99.99,,,-99.99,,2013-01-19 16:13:00,
2013-01-19 11:23:00,67.0,63.0,30.25,North,7,7.0,14.0,88,99.99,,,-99.99,,2013-01-19 16:23:00,
2013-01-19 11:33:00,68.0,64.0,30.24,NE,39,7.0,14.0,86,99.99,,,-99.99,,2013-01-19 16:33:00,
2013-01-19 11:43:00,68.0,64.0,30.24,NE,39,7.0,14.0,86,99.99,,,-99.99,,2013-01-19 16:43:00,
2013-01-19 11:53:00,69.0,64.0,30.23,NE,42,8.0,16.0,84,99.99,,,-99.99,,2013-01-19 16:53:00,
2013-01-19 12:03:00,69.0,64.0,30.23,NE,51,8.0,15.0,83,99.99,,,-99.99,,2013-01-19 17:03:00,
2013-01-19 12:20:00,69.0,64.0,30.23,NE,51,8.0,15.0,83,99.99,,,-99.99,,2013-01-19 17:20:00,
2013-01-19 12:29:00,69.0,63.0,30.22,NE,52,9.0,18.0,81,99.99,,,-99.99,,2013-01-19 17:29:00,
2013-01-19 12:35:00,70.0,64.0,30.22,NE,37,8.0,15.0,80,99.99,,,-99.99,,2013-01-19 17:35:00,
2013-01-19 12:48:00,70.0,64.0,30.22,NE,37,8.0,15.0,80,99.99,,,-99.99,,2013-01-19 17:48:00,
2013-01-19 12:55:00,71.0,64.0,30.20,NE,55,7.0,15.0,78,99.99,,,-99.99,,2013-01-19 17:55:00,
2013-01-19 13:14:00,72.0,63.0,30.18,ENE,62,7.0,15.0,73,99.99,,,-99.99,,2013-01-19 18:14:00,
2013-01-19 13:27:00,72.0,63.0,30.17,ENE,65,7.0,13.0,74,99.99,,,-99.99,,2013-01-19 18:27:00,
2013-01-19 13:35:00,72.0,62.0,30.16,NE,39,9.0,17.0,72,99.99,,,-99.99,,2013-01-19 18:35:00,
2013-01-19 13:45:00,72.0,62.0,30.16,NE,39,9.0,17.0,72,99.99,,,-99.99,,2013-01-19 18:45:00,
2013-01-19 14:02:00,73.0,63.0,30.16,NE,39,10.0,19.0,72,99.99,,,-99.99,,2013-01-19 19:02:00,
2013-01-19 14:09:00,73.0,63.0,30.15,NE,49,9.0,18.0,72,99.99,,,-99.99,,2013-01-19 19:09:00,
2013-01-19 14:20:00,73.0,63.0,30.15,NE,49,9.0,18.0,72,99.99,,,-99.99,,2013-01-19 19:20:00,
2013-01-19 14:30:00,73.0,64.0,30.14,NE,52,7.0,13.0,73,99.99,,,-99.99,,2013-01-19 19:30:00,
2013-01-19 14:39:00,73.0,63.0,30.14,NNE,28,6.0,12.0,70,99.99,,,-99.99,,2013-01-19 19:39:00,
2013-01-19 14:47:00,73.0,63.0,30.14,NNE,28,6.0,12.0,70,99.99,,,-99.99,,2013-01-19 19:47:00,
2013-01-19 14:58:00,73.0,63.0,30.13,NNE,30,6.0,11.0,71,99.99,,,-99.99,,2013-01-19 19:58:00,
2013-01-19 15:10:00,72.0,62.0,30.13,NE,55,7.0,16.0,70,99.99,,,-99.99,,2013-01-19 20:10:00,
2013-01-19 15:20:00,72.0,62.0,30.13,NE,55,7.0,16.0,70,99.99,,,-99.99,,2013-01-19 20:20:00,
2013-01-19 15:25:00,72.0,62.0,30.13,NE,55,6.0,15.0,71,99.99,,,-99.99,,2013-01-19 20:25:00,
2013-01-19 15:39:00,72.0,62.0,30.13,ENE,59,7.0,14.0,71,99.99,,,-99.99,,2013-01-19 20:39:00,
2013-01-19 15:48:00,72.0,62.0,30.13,ENE,59,7.0,14.0,71,99.99,,,-99.99,,2013-01-19 20:48:00,
2013-01-19 15:54:00,72.0,62.0,30.12,NE,35,5.0,10.0,72,99.99,,,-99.99,,2013-01-19 20:54:00,
2013-01-19 16:08:00,72.0,63.0,30.12,NE,56,6.0,12.0,73,99.99,,,-99.99,,2013-01-19 21:08:00,
2013-01-19 16:14:00,72.0,63.0,30.12,NE,56,6.0,12.0,73,99.99,,,-99.99,,2013-01-19 21:14:00,
2013-01-19 16:27:00,72.0,63.0,30.12,NE,49,6.0,12.0,73,99.99,,,-99.99,,2013-01-19 21:27:00,
2013-01-19 16:44:00,72.0,64.0,30.13,NE,51,5.0,8.0,75,99.99,,,-99.99,,2013-01-19 21:44:00,
2013-01-19 17:00:00,72.0,63.0,30.13,NE,51,6.0,11.0,74,99.99,,,-99.99,,2013-01-19 22:00:00,
2013-01-19 17:14:00,71.0,63.0,30.13,NE,37,5.0,10.0,76,99.99,,,-99.99,,2013-01-19 22:14:00,
2013-01-19 17:27:00,71.0,63.0,30.13,NNE,15,7.0,12.0,77,99.99,,,-99.99,,2013-01-19 22:27:00,
2013-01-19 17:35:00,70.0,63.0,30.13,NE,56,5.0,11.0,78,99.99,,,-99.99,,2013-01-19 22:35:00,
2013-01-19 17:47:00,70.0,63.0,30.13,NE,56,5.0,11.0,78,99.99,,,-99.99,,2013-01-19 22:47:00,
2013-01-19 17:58:00,70.0,63.0,30.14,SE,128,4.0,7.0,79,99.99,,,-99.99,,2013-01-19 22:58:00,
2013-01-19 18:13:00,70.0,64.0,30.14,East,84,3.0,7.0,80,99.99,,,-99.99,,2013-01-19 23:13:00,
2013-01-19 18:25:00,70.0,64.0,30.14,East,83,3.0,7.0,80,99.99,,,-99.99,,2013-01-19 23:25:00,
2013-01-19 18:34:00,69.0,64.0,30.14,NE,48,4.0,9.0,83,99.99,,,-99.99,,2013-01-19 23:34:00,
2013-01-19 18:45:00,69.0,64.0,30.14,NE,48,4.0,9.0,83,99.99,,,-99.99,,2013-01-19 23:45:00,
2013-01-19 19:07:00,69.0,64.0,30.14,NE,45,3.0,8.0,83,99.99,,,-99.99,,2013-01-20 00:07:00,
2013-01-19 19:15:00,69.0,64.0,30.14,ENE,60,3.0,7.0,85,99.99,,,-99.99,,2013-01-20 00:15:00,
2013-01-19 19:25:00,68.0,64.0,30.15,NNE,27,3.0,8.0,88,99.99,,,-99.99,,2013-01-20 00:25:00,
2013-01-19 19:35:00,68.0,64.0,30.16,NNE,28,2.0,7.0,88,99.99,,,-99.99,,2013-01-20 00:35:00,
2013-01-19 19:46:00,68.0,64.0,30.16,NNE,28,2.0,7.0,88,99.99,,,-99.99,,2013-01-20 00:46:00,
2013-01-19 19:57:00,68.0,64.0,30.16,East,83,1.0,4.0,88,99.99,,,-99.99,,2013-01-20 00:57:00,
2013-01-19 20:04:00,68.0,65.0,30.16,East,91,2.0,5.0,89,99.99,,,-99.99,,2013-01-20 01:04:00,
2013-01-19 20:27:00,68.0,65.0,30.16,SE,127,2.0,5.0,90,99.99,,,-99.99,,2013-01-20 01:27:00,
2013-01-19 20:37:00,67.0,65.0,30.16,East,86,3.0,6.0,94,99.99,,,-99.99,,2013-01-20 01:37:00,
2013-01-19 20:48:00,67.0,65.0,30.16,East,86,3.0,6.0,94,99.99,,,-99.99,,2013-01-20 01:48:00,
2013-01-19 20:58:00,67.0,66.0,30.17,East,91,4.0,6.0,95,99.99,,,-99.99,,2013-01-20 01:58:00,
2013-01-19 21:09:00,66.0,65.0,30.17,ENE,75,3.0,7.0,96,99.99,,,-99.99,,2013-01-20 02:09:00,
2013-01-19 21:15:00,66.0,65.0,30.17,ENE,75,3.0,7.0,96,99.99,,,-99.99,,2013-01-20 02:15:00,
2013-01-19 21:27:00,66.0,65.0,30.16,ESE,113,3.0,5.0,97,99.99,,,-99.99,,2013-01-20 02:27:00,
2013-01-19 21:35:00,66.0,65.0,30.16,ENE,69,0.0,1.0,97,99.99,,,-99.99,,2013-01-20 02:35:00,
2013-01-19 21:44:00,66.0,65.0,30.16,ENE,69,0.0,1.0,97,99.99,,,-99.99,,2013-01-20 02:44:00,
2013-01-19 22:08:00,66.0,65.0,30.15,North,0,0.0,0.0,98,99.99,,,-99.99,,2013-01-20 03:08:00,
2013-01-19 22:15:00,66.0,65.0,30.15,North,0,0.0,0.0,98,99.99,,,-99.99,,2013-01-20 03:15:00,
2013-01-19 22:25:00,66.0,66.0,30.16,North,0,0.0,0.0,99,99.99,,,-99.99,,2013-01-20 03:25:00,
2013-01-19 22:38:00,65.0,65.0,30.15,NNE,28,1.0,4.0,99,99.99,,,-99.99,,2013-01-20 03:38:00,
2013-01-19 22:45:00,65.0,65.0,30.15,NNE,28,1.0,4.0,99,99.99,,,-99.99,,2013-01-20 03:45:00,
2013-01-19 22:58:00,65.0,65.0,30.14,NNE,23,2.0,5.0,99,99.99,,,-99.99,,2013-01-20 03:58:00,
2013-01-19 23:05:00,65.0,65.0,30.14,NE,45,4.0,8.0,99,99.99,,,-99.99,,2013-01-20 04:05:00,
2013-01-19 23:15:00,65.0,65.0,30.14,NE,45,4.0,8.0,99,99.99,,,-99.99,,2013-01-20 04:15:00,
2013-01-19 23:26:00,65.0,65.0,30.14,NE,55,3.0,6.0,100,99.99,,,-99.99,,2013-01-20 04:26:00,
2013-01-19 23:37:00,64.0,64.0,30.14,ENE,68,4.0,6.0,100,99.99,,,-99.99,,2013-01-20 04:37:00,
2013-01-19 23:44:00,64.0,64.0,30.14,ENE,68,4.0,6.0,100,99.99,,,-99.99,,2013-01-20 04:44:00,
2013-01-19 23:58:00,64.0,64.0,30.14,NNE,13,1.0,3.0,100,99.99,,,-99.99,,2013-01-20 04:58:00,